Location: *
(49.9853°N, 3.5569°E)
Time: 13:00:32
(UTC+00:00)

CZ-2C R/B - Pass Details

Date: 22 September 2019
Orbit: 785 x 870 km, 98.3° (Epoch: 20 October)

Event Time Altitude Azimuth Distance (km) Brightness Sun altitude
Rises 19:15:53 0° 28° (NNE) 3,447 5.8 -15.2°
Reaches altitude 10° 19:19:19 10° 49° (NE) 2,515 4.9 -15.7°
Enters shadow 19:21:06 14° 67° (ENE) 2,216 4.5 -16.0°
